sat.trackr.live / text

‹ back to catalog

KUIPER-00082

NORAD 64828 · 2025-151N

PAYLOAD ACTIVE UNKNOWN

§ Identity

Operator
Country
US
Launch date
2025-07-16
Launch site
AFETR
Launch vehicle
Mass (kg)
RCS (m²)

External: N2YO · Heavens-Above · Gunter

§ Orbital elements

Epoch: 2026-09-21T21:07:29.375040Z

Period
97.30 min
Inclination
51.9026°
Eccentricity
0.0001006
Mean motion
14.79928488 rev/d
Perigee alt
628.8 km
Apogee alt
630.3 km
Semi-major
7,007.7 km
B*
1.2450e-4
RAAN
140.5716°
Arg perigee
96.6155°
Mean anomaly
263.4922°
Rev number
6,453

§ Raw data

KUIPER-000821 64828U 25151N   26264.88020110  .00000728  00000+0  12450-3 0  99932 64828  51.9026 140.5716 0001006  96.6155 263.4922 14.79928488 64532

JSON: /api/v1/satellites/64828 · /tle

For live sub-satellite position, see the globe view (requires WebGL).

§ Visibility from observer

Set your observer location to see the next 7 days of passes ≥ 10°. The values pass through the URL so the page stays shareable.

No JS? Fill the form by hand. The geolocation button needs JavaScript.